千帆星座-49 (QIANFAN-49)

导读

QIANFAN-49 是中国北斗卫星导航系统的一部分,主要用于提供高精度定位、导航和授时服务。该卫星由航天科技集团研制,于2023年成功发射,进一步增强了北斗系统的全球覆盖能力和稳定性。QIANFAN-49 采用先进技术和高可靠设计,支持多种导航信号,适用于交通、农业、通信等多个领域,提升了中国在全球卫星导航领域的竞争力。

Basic Information
目录编号:
62250
目录名称:
QIANFAN-49
国际标识:
2024-232P
轨道中心:
EARTH
卫星名称:
千帆星座-49
卫星全名:
千帆星座-49 (QIANFAN-49)
卫星状态:
在轨 (已飞行600 天)
发射日期:
2024-12-05 UTC
国别 :
中国 (CN)
星等 :
--
Orbit Information
数据来源 国际轨道数据 AOE轨道数据
星历时间 2026-07-27T21:08:31+0800
14小时前
查看轨道信息
2026-07-28T00:00:00+0800
11小时前
查看轨道信息
半长轴 7446.665km 7446.672km
偏心率 0.0012191 0.0012201
轨道倾角 89.008° 89.009°
近地点辐角 257.866° 257.430°
升交点赤经 18.450° 18.437°
平近点角 102.112° 321.416°
近地点 1059.449km 1059.449km
远地点 1077.607km 1077.621km
周期 106.587分钟 106.587分钟
每日圈数 13.510148 13.510129
Detailed Information
卫星平台:
49
覆盖范围:
全球
运营商:
上海垣信卫星科技有限公司
运营商所在国:
中国
使用方式:
暂无
Satellite Introduction
千帆星座,也被称为“G60星链”计划,是中国版“星链”的重要组成部分,旨在打造一个由1.4万多颗低轨宽频多媒体卫星构成的庞大星座。千帆星座计划由上海垣信卫星科技有限公司负责实施,于2023年启动建设。该项目是我国第二个低轨卫星大星座,旨在通过构建庞大的卫星网络,为全球用户提供高质量的通信和宽带互联网服务。
2D Orbit Map
3D Orbit Map
Orbit Altitude Analysis Chart
Orbit Inclination Analysis Chart
Orbit Comprehensive Analysis Chart
View Comprehensive Chart